| time (UTC) | temp F | wind direction | speed MPH | gust MPH | rain 1hr in | rain 24hr in | rain mn in | humidity % | barometer mb |
| 20260510145008 | 55 | 16 | 3.0 | 5.0 | 0.00 | 0.00 | 0.00 | 56 | 1016.0 |
| 20260510142009 | 55 | 156 | 3.0 | 4.0 | 0.00 | 0.00 | 0.00 | 60 | 1016.2 |
| 20260510135008 | 54 | 32 | 3.0 | 6.0 | 0.00 | 0.00 | 0.00 | 60 | 1016.4 |
| 20260510132008 | 54 | 320 | 3.0 | 7.0 | 0.00 | 0.00 | 0.00 | 62 | 1016.5 |
| 20260510125009 | 55 | 264 | 6.0 | 6.0 | 0.00 | 0.00 | 0.00 | 62 | 1016.6 |
| 20260510122008 | 54 | 178 | 2.0 | 4.0 | 0.00 | 0.00 | 0.00 | 66 | 1017.1 |
| 20260510115008 | 55 | 26 | 4.0 | 6.0 | 0.00 | 0.00 | 0.00 | 63 | 1017.1 |
| 20260510112008 | 58 | 128 | 4.0 | 5.0 | 0.00 | 0.00 | 0.00 | 57 | 1017.1 |
| 20260510105008 | 58 | 150 | 4.0 | 7.0 | 0.00 | 0.00 | 0.00 | 58 | 1017.5 |
| 20260510102008 | 56 | 187 | 1.0 | 4.0 | 0.00 | 0.00 | 0.00 | 62 | 1017.4 |
| 20260510095008 | 56 | 237 | 2.0 | 8.0 | 0.00 | 0.00 | 0.00 | 61 | 1017.3 |
| 20260510092008 | 54 | 102 | 4.0 | 9.0 | 0.00 | 0.00 | 0.00 | 65 | 1017.8 |
| 20260510082010 | 52 | 104 | 2.0 | 5.0 | 0.00 | 0.00 | 0.00 | 70 | 1018.1 |
| 20260510075008 | 51 | 66 | 2.0 | 9.0 | 0.00 | 0.00 | 0.00 | 73 | 1018.0 |
| 20260510072008 | 51 | 181 | 4.0 | 5.0 | 0.00 | 0.00 | 0.00 | 75 | 1018.2 |
| 20260510065008 | 50 | 179 | 2.0 | 6.0 | 0.00 | 0.00 | 0.00 | 77 | 1018.0 |
| 20260510062008 | 50 | 206 | 2.0 | 6.0 | 0.00 | 0.00 | 0.00 | 79 | 1018.0 |
| 20260510055008 | 49 | 292 | 3.0 | 5.0 | 0.00 | 0.00 | 0.00 | 79 | 1017.8 |
| 20260510052008 | 49 | 26 | 5.0 | 8.0 | 0.00 | 0.00 | 0.00 | 80 | 1017.8 |
| 20260510045009 | 49 | 321 | 0.0 | 5.0 | 0.00 | 0.00 | 0.00 | 81 | 1018.0 |
| 20260510042008 | 49 | 243 | 0.0 | 3.0 | 0.00 | 0.00 | 0.00 | 80 | 1017.9 |
| 20260510035008 | 49 | 246 | 2.0 | 6.0 | 0.00 | 0.00 | 0.00 | 81 | 1018.2 |
| 20260510032008 | 49 | 7 | 7.0 | 7.0 | 0.00 | 0.00 | 0.00 | 80 | 1018.0 |
| 20260510022009 | 49 | 321 | 2.0 | 5.0 | 0.00 | 0.00 | 0.00 | 82 | 1018.2 |
| 20260510015008 | 49 | 6 | 3.0 | 4.0 | 0.00 | 0.00 | 0.00 | 82 | 1018.2 |
| 20260510012009 | 49 | 38 | 1.0 | 4.0 | 0.00 | 0.00 | 0.00 | 79 | 1018.5 |
| 20260510005008 | 50 | 38 | 3.0 | 4.0 | 0.00 | 0.00 | 0.00 | 74 | 1018.2 |
| 20260510002008 | 51 | 70 | 0.0 | 6.0 | 0.00 | 0.00 | 0.00 | 63 | 1018.4 |
| 20260509232008 | 54 | 237 | 2.0 | 4.0 | 0.00 | 0.00 | 0.00 | 53 | 1018.0 |
| 20260509225008 | 55 | 112 | 1.0 | 3.0 | 0.00 | 0.00 | 0.00 | 51 | 1017.8 |
| 20260509222008 | 55 | 321 | 0.0 | 4.0 | 0.00 | 0.00 | 0.00 | 49 | 1017.7 |
| 20260509215009 | 56 | 130 | 0.0 | 4.0 | 0.00 | 0.00 | 0.00 | 49 | 1017.9 |
| 20260509212009 | 57 | 89 | 0.0 | 1.0 | 0.00 | 0.00 | 0.00 | 51 | 1017.6 |
| 20260509205008 | 59 | 242 | 0.0 | 0.0 | 0.00 | 0.00 | 0.00 | 47 | 1017.2 |
| 20260509195009 | 61 | 89 | 0.0 | 2.0 | 0.00 | 0.00 | 0.00 | 43 | 1016.7 |
| 20260509192009 | 63 | 269 | 2.0 | 5.0 | 0.00 | 0.00 | 0.00 | 41 | 1016.7 |
| 20260509185009 | 64 | 82 | 1.0 | 4.0 | 0.00 | 0.00 | 0.00 | 40 | 1016.3 |
| 20260509182010 | 66 | 121 | 4.0 | 4.0 | 0.00 | 0.00 | 0.00 | 37 | 1016.0 |
| 20260509175009 | 68 | 142 | 1.0 | 5.0 | 0.00 | 0.00 | 0.00 | 37 | 1015.8 |
| 20260509172009 | 69 | 187 | 2.0 | 5.0 | 0.00 | 0.00 | 0.00 | 36 | 1015.6 |
| 20260509162008 | 70 | 214 | 0.0 | 2.0 | 0.00 | 0.00 | 0.00 | 36 | 1015.5 |
| 20260509155009 | 72 | 304 | 2.0 | 4.0 | 0.00 | 0.00 | 0.00 | 34 | 1015.8 |
| 20260509152008 | 71 | 97 | 2.0 | 5.0 | 0.00 | 0.00 | 0.00 | 34 | 1016.0 |